User: anonymous   Login
Location: Cluny
(50.9333°N, 112.8167°W)
Time: 07:32:36
(UTC-06:00)
Language:

Cosmos 1743 Rocket - Orbit

View from above orbital plane
View from above orbital plane
View from above satellite
View from above satellite

Ground track
Ground track

The orbit data is extracted from the following two-line orbital elements,

1 16720U 86034B   17264.84913694 +.00000094 +00000-0 +84189-5 0  9999
2 16720 082.5553 151.3927 0021169 139.2842 274.8137 14.83303552672508
Epoch (UTC): 21 September 2017 20:22:45
Eccentricity: 0.0021169
inclination: 82.5553°
perigee height: 604 km
apogee height: 634 km
right ascension of ascending node: 151.3927°
argument of perigee: 139.2842°
revolutions per day: 14.83303552
mean anomaly at epoch: 274.8137°
orbit number at epoch: 67250

The dashed part of the orbit path shows where the satellite is in the earth's shadow,  

DLR